Regional Weather Roundup
Issued by NWS

Home | Current Version | Previous Version | Text Only | Print | Product List | Glossary Off
Versions: 1 2 3 4 5 6 7 8 9 10 11 12 13 14 15 16 17 18 19 20 21 22 23 24 25 26 27 28 29 30 31 32 33 34 35 36 37 38 39 40 41 42 43 44 45 46 47 48 49 50

000
ASUS43 KLOT 212300
RWRIL

ILLINOIS REGIONAL WEATHER ROUNDUP
NATIONAL WEATHER SERVICE CHICAGO/ROMEOVILLE IL
600 PM CDT TUE OCT 21 2014

NOTE: "FAIR" INDICATES FEW OR NO CLOUDS BELOW 12,000 FEET WITH NO
SIGNIFICANT WEATHER AND/OR OBSTRUCTIONS TO VISIBILITY.

* THESE STATIONS ARE NOT UNDER NWS QUALITY CONTROL. THEY ALSO MAY NOT
  REPORT WEATHER SUCH AS PRECIPITATION OR FOG.

ILZ001-002-007-009-015-016-024-220000-
NORTHWEST ILLINOIS

CITY           SKY/WX    TMP DP  RH WIND       PRES   REMARKS
MOLINE         CLEAR     53  38  56 E10       30.18R
STERLING*      CLEAR     52  37  58 E10       30.20S
$$

ILZ003-004-008-010-011-017-018-220000-
NORTH CENTRAL ILLINOIS

CITY           SKY/WX    TMP DP  RH WIND       PRES   REMARKS
ROCKFORD       PTCLDY    49  37  63 E8        30.24R
$$

ILZ005-006-012>014-019>023-220000-
NORTHEAST ILLINOIS

CITY           SKY/WX    TMP DP  RH WIND       PRES   REMARKS
CHICAGO-OHARE  CLOUDY    49  39  68 N10       30.21R
CHICAGO-MIDWAY CLOUDY    51  38  60 N13       30.20R
AURORA         CLOUDY    50  37  61 NE8       30.22R
WAUKEGAN       PTCLDY    46  36  68 N6        30.22R
DUPAGE AIRPORT CLOUDY    49  37  63 NE9       30.21R
WHEELING       CLOUDY    50  39  66 N8        30.22R
NORTHERLY ISL    N/A     49  38  65 N13         N/A
$$

LMZ740>746-220000-
SOUTHERN LAKE MICHIGAN

STATION/POSITION SKY/WX   TEMP    WIND        PRES    VSBY  WAVE
                          AIR SEA DIR/SP/G                  HT/PER
                          (F)     (DEG/KT/KT) (MB)    (MI)  (FT/S)
SOUTHERN BUOY              49 54  350/ 16/ 19 1022.4R         5/ 7
WAUKEGAN HARBOR            48      10/ 12/ 19   N/A
HARRISON CRIB              50     350/ 19/ 22   N/A
BURNHAM HARBOR             49     360/ 14/ 15   N/A
CALUMET HARBOR             50     340/ 13/ 16 1021.4R
MICHIGAN CITY              50     360/ 18/ 21   N/A
$$

ILZ025>027-034>036-040-047-049-050-058-095>099-220000-
WEST-CENTRAL ILLINOIS

CITY           SKY/WX    TMP DP  RH WIND       PRES   REMARKS
QUINCY         CLEAR     59  40  49 NE6       30.14R
$$

ILZ028>032-037-038-041>044-048-051>054-059>061-220000-
CENTRAL ILLINOIS

CITY           SKY/WX    TMP DP  RH WIND       PRES   REMARKS
DECATUR        CLEAR     53  40  61 NE12      30.16R
PEORIA         CLEAR     56  38  50 E7        30.17R
SPRINGFIELD    CLEAR     56  40  55 NE8       30.15F
TAYLORVILLE    NOT AVBL
$$

ILZ033-039-045-046-055>057-062-063-220000-
EAST-CENTRAL ILLINOIS

CITY           SKY/WX    TMP DP  RH WIND       PRES   REMARKS
CHAMPAIGN      MOCLDY    53  43  68 NE12      30.17S
MATTOON        CLEAR     54  38  54 NE7       30.15R
$$

ILZ079-100>102-220000-
SOUTHWEST ILLINOIS

CITY           SKY/WX    TMP DP  RH WIND       PRES   REMARKS
ALTON          CLEAR     61  36  39 CALM      30.13R
BELLEVILLE     CLEAR     62  45  53 N6        30.11S
CAHOKIA*       CLEAR     63  44  50 NE8       30.12R
$$

ILZ064>066-069>071-074>076-080>082-084>086-088>090-092>094-220000-
SOUTH-CENTRAL ILLINOIS

CITY           SKY/WX    TMP DP  RH WIND       PRES   REMARKS
CARBONDALE     CLEAR     64  42  44 N5        30.10R
MARION         CLEAR     63  46  55 N12       30.10S
MT. VERNON     CLEAR     59  41  51 NE6       30.13R
$$

ILZ067-068-072-073-078-083-087-091-220000-
SOUTHEAST ILLINOIS

CITY           SKY/WX    TMP DP  RH WIND       PRES   REMARKS
LAWRENCEVILLE  CLEAR     57  40  52 N9        30.14R
$$

ABBREVIATIONS USED IN REMARKS
   TC - TEMPERATURE IN CELSIUS
  WCI - WIND CHILL INDEX
   HX - HEAT INDEX
  VSB - VISIBILITY
$$




USA.gov is the U.S. government's official web portal to all federal, state and local government web resources and services.